Weather in Kirillovka

Russia / Samara Oblast     53°51′25″N   49°47′57″E
temp.,
°C
wind,
m/s
gust,
m/s
humid.,
%
clouds,
%
prec.,
mm/h
press.,
hPa
HPBL,
m
28 september, tue
tue2801:00+4ne6894100 0.1 1017725
04:00+4ne6886100 0.2 1019834
07:00+4ne7106998 0.0 1021997
10:00+5ne710635 0.0 1022825
13:00+8ne795016 0.0 10231367
16:00+9ne784559 0.0 10241564
19:00+6nne61053100 0.0 1025573
22:00+4nne51165100 0.0 1027341
29 september, wed
wed2901:00+4nne41069100 0.0 1027309
04:00+3nne497387 0.0 1028259
07:00+2nne4107998 0.0 1029238
10:00+6ne57565 0.0 1029756
13:00+9nne564722 0.0 10291505
16:00+9nne564235 0.0 10291714
19:00+6nne35565 0.0 103091
22:00+4nne34665 0.0 103057
30 september, thu
thu3001:00+3nne22695 0.0 103128
04:00+2n22725 0.0 103117
07:00+2n22745 0.0 103214
10:00+7nnw22555 0.0 1032426
13:00+9n33455 0.0 10321382
16:00+10nnw444799 0.0 10311567
19:00+8nw245699 0.0 1031137
22:00+8wnw2459100 0.0 1032108
1 october, fri
fri101:00+7wsw3663100 0.0 1031187
04:00+7w3676100 0.0 1031190
07:00+7w368198 0.0 1031141
10:00+9wnw3577100 0.0 1031324
13:00+11wnw457387 0.0 1031597
16:00+13wnw3466100 0.0 1030985
19:00+11wnw237280 0.0 103062
22:00+9nw22805 0.0 103111
2 october, sat
sat201:00+8wnw228569 0.0 103111
04:00+7wnw22915 0.0 103127
07:00+7nw22935 0.0 103230
10:00+11nnw34725 0.0 1032399
13:00+14nnw345513 0.0 1032973
16:00+15nnw335415 0.0 10321164
19:00+11nnw22725 0.0 103319
22:00+10nne22795 0.0 103415